Regional Weather Roundup
Issued by NWS

Home | Current Version | Previous Version | Graphics & Text | Print | Product List | Glossary On
Versions: 1 2 3 4 5 6 7 8 9 10 11 12 13 14 15 16 17 18 19 20 21 22 23 24 25 26 27 28 29 30 31 32 33 34 35 36 37 38 39 40 41 42 43 44 45 46 47 48 49 50
000
ASUS45 KSLC 231710
RWRUT

UTAH REGIONAL WEATHER ROUNDUP
NATIONAL WEATHER SERVICE SALT LAKE CITY UT
1100 AM MDT WED AUG 23 2017

UTZ001>011-023>025-231800-

NORTHERN UTAH

CITY           SKY/WX    TMP DP  RH WIND       PRES   REMARKS
BRIGHAM CITY   MOSUNNY   78  46  32 CALM      30.19S
DUGWAY         MOSUNNY   82  46  28 W2        30.17S
HILL AFB       PTSUNNY   77  48  35 E3        30.21R
LOGAN            N/A     73  53  49 N10       30.21R
OGDEN          MOSUNNY   78  49  35 CALM      30.18S
SALT LAKE CITY MOSUNNY   80  52  37 S8        30.16F
TOOELE VALLEY  SUNNY     81  50  34 S3        30.18S
WENDOVER       PTSUNNY   75  48  38 E10       30.17S
HEBER CITY     SUNNY     70  46  43 CALM      30.25F
WEST JORDAN    SUNNY     80  57  46 S12       30.20S

$$

UTZ011>015-024>027-231800-

CENTRAL/NORTHEAST UTAH

CITY           SKY/WX    TMP DP  RH WIND       PRES   REMARKS
PROVO AIRPORT  SUNNY     75  57  53 SW5       30.21S
MOAB/CANYONLAN   N/A     82  47  29 SE6       30.19S
DELTA          SUNNY     79  43  27 CALM      30.20S
PRICE          MOSUNNY   75  51  43 VRB6      30.28F
RICHFIELD      SUNNY     73  48  40 SE2       30.26F
ROOSEVELT      SUNNY     77  45  31 S3        30.26F
VERNAL         SUNNY     76  48  37 VRB3      30.25F

$$

UTZ013>016-019>022-027-231800-

SOUTHERN UTAH

CITY           SKY/WX    TMP DP  RH WIND       PRES   REMARKS
BRYCE CANYON   MOSUNNY   72  40  31 CALM      30.40F
CEDAR CITY     SUNNY     78  43  28 VRB3      30.25F
MILFORD        SUNNY     76  48  37 S9        30.21F
ST GEORGE      SUNNY     82  47  29 CALM      30.08F
HANKSVILLE     SUNNY     81  45  28 CALM      30.22S
KANAB          SUNNY     82  46  28 S7        30.25
BLANDING       SUNNY     76  49  39 CALM      30.37F

$$

REGIONAL REPORTS     COLORADO/ARIZONA

CITY           SKY/WX    TMP DP  RH WIND       PRES   REMARKS
CRAIG, CO      CLOUDY    74  44  34 E6        30.31F
GRAND JUNCTION SUNNY     79  48  33 S6        30.22F
RIFLE, CO      SUNNY     75  46  35 CALM      30.26F
MONTROSE, CO   SUNNY     74  46  36 CALM      30.31F
CORTEZ, CO     SUNNY     78  52  40 S5        30.30F
COLORADO CITY    N/A     82  45  26 CALM      30.24S
PAGE, AZ       SUNNY     84  47  27 N5        30.16F
GRAND CANYON   SUNNY     76  40  27 W9        30.34F
KINGMAN, AZ    SUNNY     91  49  23 VRB3      30.08F
FLAGSTAFF, AZ  PTSUNNY   76  42  29 VRB3      30.37S

$$

REGIONAL REPORTS    NEVADA/IDAHO/WYOMING

CITY           SKY/WX    TMP DP  RH WIND       PRES   REMARKS
LAS VEGAS, NV  MOSUNNY   93  44  18 E6        29.99S
ELY, NY        SUNNY     74  43  32 E5        30.29F
ELKO, NV       SUNNY     73  46  38 CALM      30.21F
POCATELLO, ID  LGT RAIN  65  56  72 SW13      30.22R
BURLEY, ID     LGT RAIN  72  55  55 W10       30.15R
FORT BRIDGER,  CLOUDY    62  51  66 SW12      30.42R
EVANSTON, WY   CLOUDY    67  46  47 E15       30.38S
ROCK SPRINGS,  CLOUDY   N/A N/A N/A MISG      30.34S
KEMMERER, WY     N/A     61  45  55 SW9       30.41R

$$



USA.gov is the U.S. government's official web portal to all federal, state and local government web resources and services.